Hourly Weather Ruchevaya

Today, 22 April, Thursday

Time Temperature Precipitation Wind Pressure Humidity
00:00 +3°C° 0 mm 2 mps 733 mmHg 94%
01:00 +2°C° 0 mm 3 mps 734 mmHg 94%
02:00 +2°C° 0 mm 3 mps 734 mmHg 94%
03:00 +2°C° 0 mm 3 mps 734 mmHg 94%
04:00 +2°C° 0 mm 3 mps 734 mmHg 94%
05:00 +2°C° 0 mm 3 mps 734 mmHg 94%
06:00 +4°C° 0 mm 3 mps 734 mmHg 90%
07:00 +5°C° 0 mm 3 mps 734 mmHg 85%
08:00 +6°C° 0 mm 4 mps 735 mmHg 80%
09:00 +8°C° 0 mm 4 mps 735 mmHg 72%
10:00 +10°C° 0 mm 4 mps 735 mmHg 63%
11:00 +12°C° 0 mm 4 mps 735 mmHg 54%
12:00 +13°C° 0 mm 4 mps 735 mmHg 49%
13:00 +14°C° 0 mm 4 mps 735 mmHg 44%
14:00 +14°C° 0 mm 4 mps 735 mmHg 38%
15:00 +14°C° 0 mm 4 mps 735 mmHg 43%
16:00 +13°C° 0 mm 4 mps 735 mmHg 48%
17:00 +13°C° 0 mm 4 mps 735 mmHg 53%
18:00 +11°C° 0.1 mm 3 mps 735 mmHg 63%
19:00 +10°C° 0.1 mm 3 mps 735 mmHg 72%
20:00 +8°C° 0.1 mm 3 mps 735 mmHg 81%
21:00 +7°C° 0 mm 3 mps 735 mmHg 84%
22:00 +7°C° 0 mm 3 mps 735 mmHg 87%
23:00 +5°C° 0 mm 3 mps 734 mmHg 89%

Tomorrow, 23 April, Friday

Time Temperature Precipitation Wind Pressure Humidity
00:00 +6°C° 0.2 mm 2 mps 734 mmHg 91%
01:00 +6°C° 0.2 mm 2 mps 734 mmHg 93%
02:00 +6°C° 0.2 mm 2 mps 734 mmHg 95%
03:00 +5°C° 1.5 mm 2 mps 734 mmHg 94%
04:00 +4°C° 1.5 mm 2 mps 734 mmHg 94%
05:00 +4°C° 1.5 mm 2 mps 735 mmHg 94%
06:00 +4°C° 0.1 mm 2 mps 735 mmHg 90%
07:00 +4°C° 0.1 mm 3 mps 735 mmHg 87%
08:00 +4°C° 0.1 mm 3 mps 735 mmHg 84%
09:00 +5°C° 0.2 mm 3 mps 736 mmHg 79%
10:00 +5°C° 0.2 mm 4 mps 736 mmHg 75%
11:00 +6°C° 0.2 mm 4 mps 736 mmHg 70%
12:00 +6°C° 0.2 mm 4 mps 736 mmHg 65%
13:00 +7°C° 0.2 mm 4 mps 736 mmHg 60%
14:00 +7°C° 0.2 mm 4 mps 736 mmHg 56%
15:00 +7°C° 0 mm 4 mps 736 mmHg 56%
16:00 +8°C° 0 mm 3 mps 736 mmHg 56%
17:00 +8°C° 0 mm 3 mps 736 mmHg 56%
18:00 +6°C° 0 mm 2 mps 736 mmHg 61%
19:00 +5°C° 0 mm 2 mps 736 mmHg 67%
20:00 +4°C° 0 mm 2 mps 736 mmHg 73%
21:00 +4°C° 0 mm 1 mps 736 mmHg 75%
22:00 +4°C° 0 mm 1 mps 736 mmHg 78%
23:00 +3°C° 0 mm 1 mps 736 mmHg 81%

Day after tomorrow, 24 April, Saturday

Time Temperature Precipitation Wind Pressure Humidity
00:00 +3°C° 0 mm 1 mps 735 mmHg 83%
01:00 +2°C° 0 mm 1 mps 735 mmHg 86%
02:00 +2°C° 0 mm 1 mps 735 mmHg 88%
03:00 +2°C° 0 mm 1 mps 735 mmHg 89%
04:00 +1°C° 0 mm 1 mps 735 mmHg 91%
05:00 +1°C° 0 mm 1 mps 734 mmHg 92%
06:00 +1°C° 0 mm 2 mps 734 mmHg 83%
07:00 +3°C° 0 mm 2 mps 734 mmHg 75%
08:00 +4°C° 0 mm 2 mps 734 mmHg 66%
09:00 +5°C° 0.2 mm 2 mps 734 mmHg 62%
10:00 +4°C° 0.2 mm 3 mps 734 mmHg 57%
11:00 +5°C° 0.2 mm 3 mps 734 mmHg 53%
12:00 +5°C° 0.3 mm 3 mps 734 mmHg 50%
13:00 +7°C° 0.3 mm 3 mps 734 mmHg 48%
14:00 +6°C° 0.3 mm 4 mps 734 mmHg 46%
15:00 +5°C° 0.2 mm 4 mps 734 mmHg 50%
16:00 +5°C° 0.2 mm 4 mps 734 mmHg 54%
17:00 +4°C° 0.2 mm 4 mps 734 mmHg 58%
18:00 +3°C° 0 mm 4 mps 734 mmHg 66%
19:00 +2°C° 0 mm 3 mps 734 mmHg 74%
20:00 0°C° 0 mm 3 mps 734 mmHg 82%
21:00 0°C° 0 mm 3 mps 734 mmHg 85%
22:00 0°C° 0 mm 3 mps 734 mmHg 88%
23:00 -1°C° 0 mm 3 mps 734 mmHg 91%

25 April, Sunday

Time Temperature Precipitation Wind Pressure Humidity
00:00 -1°C° 0 mm 3 mps 734 mmHg 92%
01:00 -1°C° 0 mm 2 mps 734 mmHg 93%
02:00 -2°C° 0 mm 2 mps 734 mmHg 94%
03:00 -2°C° 0 mm 2 mps 733 mmHg 94%
04:00 -2°C° 0 mm 3 mps 733 mmHg 93%
05:00 -2°C° 0 mm 3 mps 733 mmHg 93%
06:00 -1°C° 0 mm 3 mps 733 mmHg 88%
07:00 -2°C° 0 mm 4 mps 733 mmHg 83%
08:00 -1°C° 0 mm 4 mps 733 mmHg 78%
09:00 0°C° 0.2 mm 4 mps 733 mmHg 80%
10:00 0°C° 0.2 mm 4 mps 733 mmHg 81%
11:00 +1°C° 0.2 mm 4 mps 733 mmHg 83%
12:00 +1°C° 0.4 mm 4 mps 733 mmHg 81%
13:00 +1°C° 0.4 mm 4 mps 734 mmHg 78%
14:00 +1°C° 0.4 mm 4 mps 734 mmHg 76%
15:00 +1°C° 0.3 mm 4 mps 734 mmHg 78%
16:00 +1°C° 0.3 mm 4 mps 734 mmHg 80%
17:00 +2°C° 0.3 mm 3 mps 734 mmHg 81%
18:00 +1°C° 0.1 mm 3 mps 734 mmHg 86%
19:00 0°C° 0.1 mm 3 mps 734 mmHg 90%
20:00 +1°C° 0.1 mm 2 mps 735 mmHg 94%
21:00 -1°C° 0 mm 2 mps 735 mmHg 95%
22:00 -1°C° 0 mm 2 mps 735 mmHg 96%
23:00 -1°C° 0 mm 2 mps 735 mmHg 96%

26 April, Monday

Time Temperature Precipitation Wind Pressure Humidity
00:00 -2°C° 0 mm 2 mps 735 mmHg 97%
01:00 -2°C° 0 mm 2 mps 735 mmHg 97%
02:00 -3°C° 0 mm 2 mps 735 mmHg 97%
03:00 -3°C° 0 mm 2 mps 735 mmHg 97%
04:00 -3°C° 0 mm 2 mps 735 mmHg 97%
05:00 -3°C° 0 mm 2 mps 735 mmHg 96%
06:00 -2°C° 0 mm 3 mps 735 mmHg 92%
07:00 -1°C° 0 mm 3 mps 735 mmHg 87%
08:00 0°C° 0 mm 3 mps 735 mmHg 82%
09:00 0°C° 0 mm 3 mps 736 mmHg 81%
10:00 0°C° 0 mm 3 mps 736 mmHg 80%
11:00 0°C° 0 mm 3 mps 736 mmHg 79%
12:00 0°C° 0 mm 3 mps 736 mmHg 75%
13:00 +1°C° 0 mm 3 mps 736 mmHg 71%
14:00 +1°C° 0 mm 3 mps 736 mmHg 68%
15:00 +1°C° 0 mm 3 mps 736 mmHg 66%
16:00 +3°C° 0 mm 2 mps 736 mmHg 65%
17:00 +3°C° 0 mm 2 mps 736 mmHg 63%
18:00 +2°C° 0 mm 2 mps 735 mmHg 70%
19:00 +1°C° 0 mm 2 mps 735 mmHg 76%
20:00 +1°C° 0 mm 1 mps 735 mmHg 83%
21:00 -1°C° 0 mm 2 mps 735 mmHg 85%
22:00 -1°C° 0 mm 2 mps 735 mmHg 88%
23:00 -1°C° 0 mm 2 mps 735 mmHg 90%

27 April, Tuesday

Time Temperature Precipitation Wind Pressure Humidity
00:00 -1°C° 0 mm 2 mps 735 mmHg 90%
01:00 -1°C° 0 mm 2 mps 735 mmHg 91%
02:00 -1°C° 0 mm 2 mps 735 mmHg 91%
03:00 -1°C° 0.2 mm 3 mps 735 mmHg 93%
04:00 -1°C° 0.2 mm 3 mps 734 mmHg 94%
05:00 -1°C° 0.2 mm 3 mps 734 mmHg 96%
06:00 -1°C° 0.3 mm 3 mps 734 mmHg 96%
07:00 0°C° 0.3 mm 3 mps 734 mmHg 95%
08:00 0°C° 0.3 mm 3 mps 735 mmHg 95%
09:00 +1°C° 0.1 mm 3 mps 735 mmHg 94%
10:00 +1°C° 0.1 mm 3 mps 735 mmHg 94%
11:00 +1°C° 0.1 mm 3 mps 735 mmHg 93%
12:00 +1°C° 0 mm 3 mps 735 mmHg 92%
13:00 +2°C° 0 mm 3 mps 735 mmHg 90%
14:00 +2°C° 0 mm 3 mps 735 mmHg 88%
15:00 +2°C° 0 mm 3 mps 736 mmHg 88%
16:00 +2°C° 0 mm 3 mps 736 mmHg 88%
17:00 +2°C° 0 mm 3 mps 736 mmHg 88%
18:00 +3°C° 0 mm 2 mps 736 mmHg 90%
19:00 +2°C° 0 mm 2 mps 736 mmHg 92%
20:00 +2°C° 0 mm 2 mps 736 mmHg 94%
21:00 +2°C° 0 mm 2 mps 736 mmHg 95%
22:00 +1°C° 0 mm 2 mps 737 mmHg 96%
23:00 +1°C° 0 mm 2 mps 737 mmHg 97%
Show more